Flag for Germany Weather past 2 weeks in Winsen (Luhe), Lower Saxony, Germany

Now
41 °F

Passing clouds.


Feels Like: 38 °F
Forecast: 38 / 62 °F
Wind: 5 mph from Southwest

Location: Hamburg-Fuhlsbuettel

Current Time: Apr 19, 2015 at 3:31:32 AM

Latest Report: Apr 19, 2015 at 2:50 AM


Visibility: N/A

Pressure: 30.18 "Hg

Humidity: 87%

Dew point: 37 °F

Location of Winsen (Luhe)Location

Historic Weather in Winsen (Luhe) — Graph

°F

Winsen (Luhe) temperature yesterday

Maximum temperature yesterday: 55 °F (at 4:50 PM)
Minimum temperature yesterday: 30 °F (at 5:50 AM)
Average temperature yesterday: 45 °F

Past Weeks' High & Low Weather Summary

 TemperatureHumidityPressure
High70 °F (Apr 15, 3:20 PM)100% (Apr 4, 4:50 AM)30.57 "Hg (Apr 4, 4:50 AM)
Low27 °F (Apr 5, 5:20 AM)30% (Apr 5, 2:20 PM)29.83 "Hg (Apr 15, 3:50 PM)
Average47 °F71%30.21 "Hg
* Reported Apr 4 2:20 AM — Apr 19 2:20 AM, Winsen (Luhe), Weather by CustomWeather, © 2015

Note: Actual official high and low records may vary slightly from our data, if they occured in-between our weather recording intervals... More about our weather records

Advertising

Winsen (Luhe) weather history for previous 24 hours

 ConditionsComfort  
Time TempWeatherWind HumidityBarometerVisibility
2:20 AM
Sun, Apr 19
41 °FPassing clouds.6 mph87%30.18 "HgN/A
1:50 AM39 °FPassing clouds.3 mph93%30.21 "HgN/A
1:20 AM41 °FPassing clouds.5 mph87%30.21 "HgN/A
12:50 AM41 °FPassing clouds.5 mph87%30.21 "HgN/A
12:20 AM41 °FPassing clouds.6 mph87%30.24 "HgN/A
11:50 PM
Sat, Apr 18
41 °FPassing clouds.6 mph93%30.21 "HgN/A
11:20 PM43 °FPassing clouds.5 mph87%30.24 "HgN/A
10:50 PM43 °FPassing clouds.8 mph87%30.24 "HgN/A
10:20 PM43 °FPassing clouds.13 mph87%30.24 "HgN/A
9:50 PM45 °FClear.9 mph81%30.24 "Hg10 mi
9:20 PM46 °FSunny.10 mph76%30.24 "Hg10 mi
8:50 PM46 °FSunny.8 mph76%30.24 "Hg10 mi
8:20 PM48 °FPassing clouds.12 mph66%30.24 "HgN/A
7:50 PM50 °FSunny.13 mph62%30.24 "Hg10 mi
7:20 PM52 °FSunny.15 mph62%30.24 "Hg10 mi
6:50 PM52 °FSunny.16 mph58%30.24 "Hg10 mi
6:20 PM54 °FBroken clouds.17 mph54%30.24 "HgN/A
5:50 PM55 °FSunny.10 mph47%30.24 "Hg10 mi
5:20 PM54 °FSunny.12 mph41%30.24 "Hg10 mi
4:50 PM55 °FPassing clouds.10 mph38%30.27 "HgN/A
4:20 PM54 °FPassing clouds.7 mph44%30.27 "HgN/A
3:50 PM54 °FPassing clouds.10 mph41%30.27 "HgN/A
3:20 PM54 °FPassing clouds.8 mph47%30.30 "HgN/A
2:50 PM54 °FPassing clouds.10 mph41%30.30 "HgN/A
2:20 PM54 °FScattered clouds.9 mph44%30.30 "HgN/A
1:50 PM54 °FScattered clouds.7 mph44%30.30 "HgN/A
1:20 PM52 °FScattered clouds.8 mph44%30.33 "HgN/A
12:50 PM54 °FScattered clouds.9 mph44%30.33 "HgN/A
12:20 PM52 °FScattered clouds.7 mph47%30.33 "HgN/A
11:50 AM50 °FScattered clouds.8 mph47%30.33 "HgN/A
11:20 AM50 °FScattered clouds.9 mph50%30.33 "HgN/A
10:50 AM50 °FScattered clouds.10 mph58%30.33 "HgN/A
10:20 AM48 °FScattered clouds.8 mph54%30.33 "HgN/A
9:50 AM48 °FPassing clouds.7 mph58%30.33 "HgN/A
9:20 AM46 °FPassing clouds.6 mph71%30.33 "HgN/A
8:50 AM45 °FSunny.5 mph81%30.33 "Hg10 mi
8:20 AM43 °FSunny.5 mph87%30.33 "Hg10 mi
7:50 AM37 °FSunny.2 mph93%30.30 "Hg10 mi
7:20 AM34 °FSunny.1 mph93%30.30 "Hg10 mi
6:50 AM32 °FFog.2 mph93%30.30 "HgN/A
6:20 AM32 °FClear.5 mph93%30.30 "Hg10 mi
5:50 AM30 °FPassing clouds.3 mph93%30.27 "HgN/A
5:20 AM32 °FClear.3 mph87%30.27 "Hg10 mi
4:50 AM32 °FClear.5 mph93%30.27 "Hg10 mi
4:20 AM37 °FClear.6 mph87%30.27 "Hg10 mi
3:50 AM37 °FClear.6 mph81%30.27 "Hg10 mi
3:20 AM37 °FClear.7 mph87%30.24 "Hg10 mi
Weather by CustomWeather, © 2015

See weather overviewHow to use our weather pages